This is the latest recevied weather packets stored in our database for station/object N3WR. If no packets are shown the sender has not sent any weather packets the latest 1 day(s).
| Time | Temp. | Humidity | Pressure | Rain* | Wind** | Luminosity | Snow |
|---|---|---|---|---|---|---|---|
| 1836274675 | 17.22° C | 70% | 1019.5 hPa | 0 mm | 0 m/s | - | - |
| 1778046299 | 18.89° C | 64% | 1008.6 hPa | 0 mm | 1.34 m/s, 213° | - | - |
| 1778045396 | 18.33° C | 63% | 1008.9 hPa | 0 mm | 0.89 m/s, 238° | - | - |
| 1778044497 | 18.33° C | 62% | 1008.8 hPa | 0 mm | 0.45 m/s, 241° | - | - |
| 1778043600 | 18.89° C | 62% | 1008.9 hPa | 0 mm | 0.45 m/s, 241° | - | - |
| 1778042698 | 18.89° C | 61% | 1008.8 hPa | 0 mm | 0.89 m/s, 254° | - | - |
| 1778041799 | 18.89° C | 61% | 1008.8 hPa | 0 mm | 0.89 m/s, 215° | - | - |
| 1778040899 | 18.89° C | 60% | 1008.9 hPa | 0 mm | 0.45 m/s, 207° | - | - |
| 1778040004 | 19.44° C | 60% | 1009 hPa | 0 mm | 0.89 m/s, 213° | - | - |
| 1778039098 | 19.44° C | 59% | 1008.8 hPa | 0 mm | 0.89 m/s, 204° | - | - |
| 1778038198 | 19.44° C | 59% | 1008.8 hPa | 0 mm | 1.34 m/s, 213° | - | - |
| 1778037301 | 20° C | 58% | 1008.8 hPa | 0 mm | 1.79 m/s, 211° | - | - |
| 1778036401 | 20° C | 57% | 1008.8 hPa | 0 mm | 1.79 m/s, 185° | - | - |
| 1778035501 | 20.56° C | 57% | 1008.8 hPa | 0 mm | 1.79 m/s, 219° | - | - |
| 1778034603 | 21.11° C | 55% | 1008.8 hPa | 0 mm | 3.13 m/s, 180° | - | - |
| 1778033699 | 21.11° C | 55% | 1008.9 hPa | 0 mm | 3.13 m/s, 196° | - | - |
| 1778032802 | 21.11° C | 54% | 1008.9 hPa | 0 mm | 2.68 m/s, 164° | - | - |
| 1778031899 | 21.67° C | 53% | 1008.6 hPa | 0 mm | 2.68 m/s, 182° | - | - |
| 1778031001 | 22.22° C | 50% | 1008.5 hPa | 0 mm | 2.68 m/s, 175° | - | - |
| 1778030098 | 22.22° C | 49% | 1008.2 hPa | 0 mm | 2.24 m/s, 165° | - | - |
| 1778029204 | 22.78° C | 49% | 1007.9 hPa | 0 mm | 2.68 m/s, 195° | - | - |
| 1778028299 | 22.78° C | 48% | 1007.7 hPa | 0 mm | 3.58 m/s, 211° | - | - |
| 1778027400 | 22.78° C | 49% | 1007.8 hPa | 0 mm | 3.13 m/s, 171° | - | - |
| 1778026503 | 23.33° C | 49% | 1007.6 hPa | 0 mm | 3.13 m/s, 194° | - | - |
| 1778025604 | 23.33° C | 48% | 1007.5 hPa | 0 mm | 3.13 m/s, 201° | - | - |
* Rain latest hour (hover to see other rain measurements)
** Current wind speed in m/s (hover to see current wind gust speed)